EW5449 Weather Reports


Display with metric or nautical units.
time (UTC)temp
F
wind
direction
speed
MPH
gust
MPH
rain 1hr
in
rain 24hr
in
rain mn
in
humidity
%
barometer
mb
20210801133351 71 265 0.0 1.0 0.00 0.00 0.00 85 1010.8
20210801131636 71 265 0.0 1.0 0.00 0.00 0.00 88 1010.7
20210801130234 70 265 0.0 2.0 0.00 0.00 0.00 86 1010.8
20210801124636 70 265 0.0 2.0 0.00 0.00 0.00 86 1010.7
20210801123151 70 265 0.0 0.0 0.00 0.00 0.00 87 1010.5
20210801121645 69 265 0.0 0.0 0.00 0.00 0.00 88 1010.7
20210801120328 69 265 0.0 1.0 0.00 0.00 0.00 88 1010.7
20210801114626 68 265 0.0 2.0 0.00 0.00 0.00 89 1010.8
20210801113219 68 167 0.0 0.0 0.00 0.00 0.00 90 1010.9
20210801111743 68 167 0.0 0.0 0.00 0.00 0.00 92 1010.8
20210801110232 68 167 0.0 0.0 0.00 0.00 0.00 95 1010.7
20210801104613 68 167 0.0 0.0 0.00 0.00 0.00 94 1010.8
20210801103108 68 167 0.0 0.0 0.00 0.00 0.00 93 1010.7
20210801101615 68 167 0.0 0.0 0.00 0.00 0.00 93 1010.7
20210801100126 68 167 0.0 0.0 0.00 0.00 0.00 93 1011.0
20210801094700 68 167 0.0 0.0 0.00 0.00 0.00 93 1010.7
20210801093120 68 167 0.0 0.0 0.00 0.00 0.00 92 1010.8
20210801091610 69 167 0.0 0.0 0.00 0.00 0.00 92 1010.9
20210801090100 69 167 0.0 0.0 0.00 0.00 0.00 92 1011.2
20210801084630 69 167 0.0 0.0 0.00 0.00 0.00 92 1011.1
20210801083046 69 167 0.0 0.0 0.00 0.00 0.00 92 1011.3
20210801081622 69 167 0.0 0.0 0.00 0.00 0.00 92 1011.3
20210801080114 69 167 0.0 0.0 0.00 0.00 0.00 92 1011.3
20210801074617 69 167 0.0 0.0 0.00 0.00 0.00 93 1011.3
20210801073045 69 167 0.0 0.0 0.00 0.00 0.00 92 1011.3
20210801071635 69 167 0.0 0.0 0.00 0.00 0.00 91 1011.1
20210801070133 69 167 0.0 0.0 0.00 0.00 0.00 91 1011.2
20210801064550 69 167 0.0 0.0 0.00 0.00 0.00 91 1011.1
20210801063032 70 167 0.0 0.0 0.00 0.00 0.00 90 1011.2
20210801061600 70 167 0.0 0.0 0.00 0.00 0.00 90 1011.3
20210801060044 70 167 0.0 0.0 0.00 0.00 0.00 91 1011.3
20210801054533 70 167 0.0 0.0 0.00 0.00 0.00 89 1011.4
20210801053059 70 167 0.0 0.0 0.00 0.00 0.00 88 1011.5
20210801051617 70 167 0.0 0.0 0.00 0.00 0.00 88 1011.6
20210801050044 71 167 0.0 0.0 0.00 0.00 0.00 88 1011.8
20210801044526 71 167 0.0 0.0 0.00 0.00 0.00 88 1012.0
20210801043020 72 167 0.0 0.0 0.00 0.00 0.00 87 1012.2
20210801041515 73 167 0.0 0.0 0.00 0.00 0.00 85 1012.5
20210801040049 73 167 0.0 0.0 0.00 0.00 0.00 82 1012.8
20210801034516 73 167 0.0 0.0 0.00 0.00 0.00 78 1012.8
20210801033014 74 167 0.0 0.0 0.00 0.00 0.00 77 1012.8
20210801031530 74 167 0.0 0.0 0.00 0.00 0.00 75 1012.9
20210801030007 74 167 0.0 0.0 0.00 0.00 0.00 74 1012.8
20210801024513 74 167 0.0 0.0 0.00 0.00 0.00 73 1012.9
20210801023035 74 167 0.0 0.0 0.00 0.00 0.00 72 1012.9
20210801021508 74 167 0.0 0.0 0.00 0.00 0.00 71 1012.8
20210801014506 75 167 0.0 0.0 0.00 0.00 0.00 70 1012.5
20210801013008 75 167 0.0 0.0 0.00 0.00 0.00 68 1012.5
20210801011503 76 167 0.0 1.0 0.00 0.00 0.00 67 1012.4
20210801010007 76 167 0.0 1.0 0.00 0.00 0.00 66 1012.1
20210801004525 77 167 0.0 1.0 0.00 0.00 0.00 65 1012.0
20210801003002 77 170 0.0 3.0 0.00 0.00 0.00 64 1012.0
20210801001502 77 171 0.0 2.0 0.00 0.00 0.00 64 1011.9
20210801000248 78 171 0.0 1.0 0.00 0.00 0.00 63 1011.9
20210731234725 79 171 0.0 3.0 0.00 0.00 0.00 62 1011.8
20210731233216 79 170 0.0 3.0 0.00 0.00 0.00 61 1011.9
20210731231752 79 167 2.0 4.0 0.00 0.00 0.00 61 1011.8
20210731230246 79 159 2.0 7.0 0.00 0.00 0.00 61 1011.8
20210731224653 79 161 1.0 4.0 0.00 0.00 0.00 61 1011.9
20210731223146 80 146 1.0 5.0 0.00 0.00 0.00 59 1012.0
20210731221708 80 188 0.0 4.0 0.00 0.00 0.00 58 1012.1
20210731220122 81 171 2.0 6.0 0.00 0.00 0.00 56 1012.1
20210731214714 81 132 2.0 8.0 0.00 0.00 0.00 56 1012.2
20210731213120 81 167 2.0 7.0 0.00 0.00 0.00 57 1012.4
20210731211623 81 251 2.0 7.0 0.00 0.00 0.00 56 1012.5
20210731210144 82 158 4.0 9.0 0.00 0.00 0.00 54 1012.6
20210731204628 83 157 3.0 5.0 0.00 0.00 0.00 52 1012.5
20210731203232 83 154 1.0 9.0 0.00 0.00 0.00 51 1012.6
20210731201646 83 159 1.0 5.0 0.00 0.00 0.00 52 1012.8
20210731200214 83 186 1.0 7.0 0.00 0.00 0.00 50 1012.9
20210731194648 83 190 1.0 4.0 0.00 0.00 0.00 48 1013.1
20210731193137 82 186 0.0 4.0 0.00 0.00 0.00 49 1013.1
20210731191645 83 171 3.0 7.0 0.00 0.00 0.00 47 1013.2
20210731190133 83 165 0.0 5.0 0.00 0.00 0.00 46 1013.4
20210731184538 84 266 2.0 5.0 0.00 0.00 0.00 44 1013.6
20210731183129 83 198 1.0 6.0 0.00 0.00 0.00 45 1013.6
20210731181556 82 42 1.0 6.0 0.00 0.00 0.00 47 1013.7
20210731180039 81 53 1.0 4.0 0.00 0.00 0.00 51 1013.8
20210731174619 81 217 0.0 3.0 0.00 0.00 0.00 50 1013.9
20210731173136 80 66 1.0 5.0 0.00 0.00 0.00 52 1014.1
20210731171547 78 266 0.0 3.0 0.00 0.00 0.00 52 1014.4
20210731170017 78 205 1.0 6.0 0.00 0.00 0.00 53 1014.5
20210731164526 77 278 3.0 6.0 0.00 0.00 0.00 53 1014.8
20210731163008 76 156 1.0 3.0 0.00 0.00 0.00 55 1014.9
20210731161507 76 278 3.0 6.0 0.00 0.00 0.00 56 1015.1
20210731160007 76 279 0.0 4.0 0.00 0.00 0.00 58 1015.3
20210731154503 75 55 0.0 5.0 0.00 0.00 0.00 57 1015.5
20210731153125 75 194 0.0 4.0 0.00 0.00 0.00 59 1015.8
20210731151700 73 205 2.0 4.0 0.00 0.00 0.00 60 1016.0
20210731150121 73 140 0.0 4.0 0.00 0.00 0.00 62 1016.2
20210731144758 72 44 2.0 4.0 0.00 0.00 0.00 61 1016.3
20210731143203 71 160 0.0 4.0 0.00 0.00 0.00 62 1016.4
20210731141700 71 146 0.0 3.0 0.00 0.00 0.00 60 1016.7
20210731140145 71 36 0.0 3.0 0.00 0.00 0.00 64 1016.7
20210731134630 70 103 0.0 2.0 0.00 0.00 0.00 67 1016.5